Location: Aiyekoto
(8.4333°N, 4.3667°E)
Time: 19:54:44
(UTC+00:00)

N. Korean satellite - Visible Passes

Search period start: 11 August 2020 00:00
Search period end: 21 August 2020 00:00
Orbit: 453 x 506 km, 97.2° (Epoch: 11 August)

Date Brightness Start Highest point End Pass type
(mag) Time Alt. Az. Time Alt. Az. Time Alt. Az.
11 Aug 7.7 04:44:47 10° NNE 04:48:15 46° E 04:51:46 10° S visible
12 Aug 9.5 04:19:54 10° NE 04:22:24 18° E 04:24:56 10° SE visible
14 Aug 6.6 05:00:14 10° N 05:03:51 89° WNW 05:07:32 10° S visible
15 Aug 8.5 04:34:45 10° NE 04:38:01 31° E 04:41:19 10° SSE visible
16 Aug 9.8 04:10:32 10° ENE 04:12:10 13° E 04:13:47 10° SE visible
18 Aug 7.2 04:50:00 10° NNE 04:53:36 60° E 04:57:14 10° S visible
19 Aug 9.2 04:24:51 10° NE 04:27:44 22° E 04:30:39 10° SSE visible
